Location: 22
(39.7117°N, 89.5929°W)
Time: 09:16:17
(UTC-05:00)

Transit 2A - Pass Details

Date: 03 August 2024
Orbit: 590 x 961 km, 66.7° (Epoch: 13 September)

Event Time Altitude Azimuth Distance (km) Brightness Sun altitude
Rises 14:46:33 0° 331° (NNW) 3,643 9.5 58.5°
Reaches altitude 10° 14:49:07 10° 332° (NNW) 2,702 8.9 58.1°
Maximum altitude 14:55:32 86° 61° (ENE) 958 7.6 57.1°
Drops below altitude 10° 15:01:41 10° 151° (SSE) 2,600 8.9 56.1°
Sets 15:04:08 0° 152° (SSE) 3,498 9.4 55.7°
